Location: Ostrava
(49.8330°N, 18.2830°E)
Time: 05:31:49
(UTC+02:00)

ISS - Pass Details

Date: 24 May 2021
Orbit: 417 x 422 km, 51.6° (Epoch: 13 June)

Event Time Altitude Azimuth Distance (km) Brightness Sun altitude
Rises 21:23:09 0° 278° (W) 2,365 1.0 -6.5°
Reaches altitude 10° 21:25:15 10° 282° (WNW) 1,501 0.1 -6.7°
Maximum altitude 21:28:36 62° 4° (N) 476 -3.3 -7.1°
Drops below altitude 10° 21:31:57 10° 86° (E) 1,503 -1.3 -7.5°
Enters shadow 21:33:32 - 89° (E) 2,148 -0.6 -7.7°
